Simultaneous Nadir Overpasses (SNOs) Predictions

Prediction of SNOs between GOES-17 and METOP-B Satellite Orbit:

Table of predicted SNOs for the next 14.0 days since TLE Epoch: 6/17/2023
Index Date Time (GOES-17) GOES-17 Lat,Lon METOP-B Lat,Lon Distance(km) Time Diff (sec)
1 06/17/2023 16:25:30 -0.00,-104.73 -0.23,-103.70 117.63 80
2 06/19/2023 04:44:30 0.00,-104.70 -0.83,-108.29 409.89 80
3 06/20/2023 04:21:10 0.00,-104.70 0.31,-103.30 159.16 80
4 06/21/2023 16:40:02 0.00,-104.73 0.69,-107.87 356.94 80
5 06/22/2023 16:22:01 0.00,-104.73 -0.39,-102.86 212.55 80
6 06/24/2023 04:41:01 -0.00,-104.71 -0.60,-107.47 314.17 80
7 06/25/2023 04:17:41 -0.00,-104.71 0.48,-102.47 255.21 80
8 06/26/2023 16:36:32 0.01,-104.74 0.50,-107.04 260.70 80
9 06/27/2023 16:18:32 0.01,-104.75 -0.58,-102.03 308.95 80
10 06/29/2023 04:37:31 -0.01,-104.72 -0.45,-106.63 217.52 80
11 06/30/2023 04:14:12 -0.00,-104.72 0.70,-101.64 351.60 80
